Location: Frankfurt am Main
(50.1109°N, 8.6821°E)
Time: 21:19:49
(UTC+01:00)

ISS - Pass Details

Date: 25 January 2020
Orbit: 415 x 423 km, 51.6° (Epoch: 25 February)

Event Time Altitude Azimuth Distance (km) Brightness Sun altitude
Rises 19:08:26 0° 251° (WSW) 2,375 1.6 -19.3°
Reaches altitude 10° 19:10:32 10° 251° (WSW) 1,511 0.2 -19.7°
Enters shadow 19:13:55 85° 176° (S) 430 -3.8 -20.2°
